Location: Hurstbourne Priors
(51.2000°N, 1.3667°W)
Time: 22:29:12
(UTC+00:00)

Transit 4A - Pass Details

Date: 28 April 2021
Orbit: 871 x 974 km, 66.8° (Epoch: 16 May)

Event Time Altitude Azimuth Distance (km) Brightness Sun altitude
Rises 05:46:24 0° 322° (NW) 3,525 10.7 8.5°
Reaches altitude 10° 05:48:57 10° 323° (NW) 2,568 10.0 8.9°
Maximum altitude 05:54:53 79° 51° (NE) 901 8.2 9.8°
Drops below altitude 10° 06:00:42 10° 138° (SE) 2,516 10.7 10.7°
Sets 06:03:10 0° 140° (SE) 3,449 11.3 11.1°
